www.pogodaiklimat.ru

Погода и климат >> Архив погоды >> Китай >> Шаньси >> Юаньпин


ПОГОДА в Юаньпине

  • Прогноз погоды в Юаньпине
  • Монитор погоды в Юаньпине

АРХИВ ПОГОДЫ в Юаньпине

Время (UTC), дата Ветер
(напр.,м/с)
 
Видим.   Явления Облачность Т
(С)
Тd
(С)
f
(%)
Тe
(С)
Тes
(С)
Комфортность P
(гПа)
Po
(гПа)
Тmin
(С)
Tmax
(С)
R
(мм)
R24
(мм)
S
(см)
09 12.08 С 3 30 км 3/3 1000 м
[]
+29.2 +13.0 37 +31 +33 жарко 999.1 908.8
12 12.08 С 4 30 км 3/3 1000 м
[]
+24.7 +13.3 49 +27 +27 жарко 1000.0 908.3
18 12.08 СВ 2 30 км ?/? +20.4 +12.6 61 +23 +23 комфорт 1000.8 907.8 +29.5
21 12.08 С 2 30 км н/о +19.7 +12.0 61 +22 +22 комфорт 1001.3 908.0
00 13.08 С 2 30 км 1/1
[]
+22.7 +13.8 57 +26 +30 жарко 1002.3 909.8
03 13.08 В 5 30 км ясно +26.7 +13.8 45 +29 +37 жарко 1002.7 911.4
06 13.08 С 3 30 км 3/3 1000 м
[]
+29.7 +13.0 36 +31 +40 жарко 1001.8 911.4 +19.4
09 13.08 С 5 30 км 5/5 1000 м
[]
+28.8 +13.1 38 +30 +31 жарко 1001.9 911.2
12 13.08 С 3 30 км 8/8 1000 м
[]
+25.0 +13.2 48 +27 +27 жарко 1003.5 911.6
18 13.08 С 2 30 км ?/? +22.2 +11.9 52 +25 +25 комфорт 1004.3 911.5 +29.9
21 13.08 С 2 30 км н/о +20.4 +13.8 66 +23 +23 комфорт 1004.1 910.8
00 14.08 СВ 1 30 км 9/9 1000 м
[]
+22.2 +14.1 60 +25 +26 комфорт 1005.3 912.4
03 14.08 С 3 30 км 3/3 1000 м
[]
+27.5 +11.1 36 +28 +38 жарко 1005.0 913.7
06 14.08 С 3 30 км 1/1 1000 м
[]
+29.9 +11.0 31 +30 +42 жарко 1003.1 912.6 +19.9
09 14.08 СЗ 2 30 км н/о +30.6 +9.5 27 +30 +30 жарко 1001.5 911.4
12 14.08 З 2 30 км ?/? +26.1 +14.6 49 +29 +29 жарко 1002.3 910.8
18 14.08 СЗ 1 30 км ?/? +20.4 +13.4 64 +24 +24 комфорт 1002.3 909.1 +30.8
21 14.08 Ю 1 21 км н/о +18.5 +14.0 75 +20 +20 1001.8 908.1
00 15.08 СВ 1 30 км 1/1
[]
+20.0 +13.5 66 +23 +27 комфорт 1002.7 909.4
03 15.08 Ю 2 30 км 1/1 1000 м
[]
+25.7 +14.5 50 +28 +43 жарко 1000.8 909.3
06 15.08 Ю 2 30 км 1/1 1000 м
[]
+29.2 +17.4 49 +33 +47 очень
душно
997.6 907.4 +17.5
09 15.08 Ю 2 30 км 1/1 1000 м
[]
+30.7 +16.7 43 +34 +38 очень
душно
994.9 905.4
12 15.08 З 2 30 км 5/5 1000 м
[]
+28.8 +11.8 35 +30 +30 жарко 994.2 904.2
18 15.08 С 3 30 км ?/? +19.3 +6.1 42 +20 +20 1000.2 906.9 +31.0
21 15.08 СЗ 2 30 км н/о +17.0 +7.4 53 +17 +17 1001.6 907.5
00 16.08 С 3 30 км 1/1
[]
+18.6 +8.0 50 +19 +22 1003.0 909.2 0.0
03 16.08 СВ 4 30 км 3/3 1000 м
[]
+21.3 +7.5 41 +22 +30 комфорт 1004.5 911.4
06 16.08 В 3 30 км 3/3 1000 м
[]
+23.6 +7.7 36 +24 +33 комфорт 1003.8 911.5 +15.7
09 16.08 С 2 30 км 1/1 1000 м
[]
+25.8 +5.9 28 +25 +29 комфорт 1003.2 911.6
12 16.08 СЗ 2 30 км 3/3 1000 м
[]
+21.3 +8.9 45 +23 +23 комфорт 1004.5 911.4
18 16.08 СЗ 1 30 км ?/? +16.8 +7.2 53 +18 +18 1007.2 912.5 +26.2
21 16.08 В 1 30 км н/о +15.2 +9.3 68 +16 +16 1007.6 912.3
00 17.08 С 1 30 км 3/3
[]
+18.0 +8.8 55 +19 +23 1008.9 914.4
03 17.08 С 3 30 км 3/3
[]
+23.3 +5.2 31 +23 +33 комфорт 1008.2 915.4
06 17.08 С 2 30 км 3/3 1000 м
[]
+25.9 +4.4 25 +25 +36 комфорт 1006.0 914.1 +14.5
09 17.08 СВ 2 30 км 3/3 1000 м
[]
+26.9 +5.8 26 +26 +29 жарко 1004.5 913.1
12 17.08 З 1 30 км 3/3 1000 м
[]
+22.9 +9.3 42 +24 +24 комфорт 1005.8 913.1
18 17.08 СЗ 2 30 км ?/? +16.4 +8.9 61 +17 +17 1007.3 912.4 +27.1
21 17.08 С 1 30 км н/о +14.8 +8.3 65 +15 +15 1008.5 913.0
00 18.08 СВ 3 30 км 3/3
[]
+16.9 +9.1 60 +17 +19 1010.0 915.0
03 18.08 Ю 2 30 км 1/1
[]
+23.3 +10.0 43 +25 +39 комфорт 1009.1 916.2
06 18.08 В 3 30 км 5/5 1000 м
[]
+27.4 +8.8 31 +27 +34 жарко 1006.8 915.3 +13.6
09 18.08 З 1 30 км 8/8 1000 м
[]
+28.1 +9.4 31 +28 +29 жарко 1006.4 915.1
12 18.08 СЗ 2 30 км 5/5 1000 м
[]
+24.4 +12.0 46 +26 +26 жарко 1007.1 914.7
18 18.08 СЗ 2 30 км ?/? +17.7 +10.6 63 +18 +18 1008.7 914.1 +29.2
21 18.08 СЗ 2 30 км н/о +17.3 +10.4 64 +18 +18 1008.8 914.1
00 19.08 Ю 1 30 км 8/8
[]
+19.3 +12.6 65 +22 +23 комфорт 1009.7 915.5
03 19.08 Ю 2 30 км 9/9 1000 м
[]
+25.1 +11.3 42 +26 +28 жарко 1009.4 917.0
06 19.08 Ю 2 30 км 9/9 1000 м
[]
+27.7 +14.7 45 +30 +32 жарко 1006.9 915.5 +16.4

 

Местоположение метеостанции Юаньпин (Шаньси, Китай): широта 38.75 долгота 112.70 высота над уровнем моря 838 м.

В архиве по умолчанию представлена погода в Юаньпине за последнюю неделю. Архивные данные за месяц целиком и за предыдущие месяцы, начиная с января 2011 года, Вы можете получить, выбрав интересующий диапазон дат из раскрывающегося списка и нажав кнопку "Ввод!".


*Определитесь, кто Вы:
робот инопланетянин человек

Внимание! Время в таблицах - всемирное. Для получения местного времени необходимо прибавить поправку, которая равна 8 ч.

Смотрите также архив погоды в соседних городах и на ближайших метеорологических станциях:

Погода на Утайшане (Шаньси, Китай) (74 км)
Погода в Тайюанье (Шаньси, Китай) (109 км)
Погода в Хэцюе (Шаньси, Китай) (151 км)
Погода в Датуне (Шаньси, Китай) (160 км)
Погода в Шицзячжуане (Хэбэй, Китай) (169 км)
Погода в Юйшэ (Шаньси, Китай) (188 км)
Погода в Лиши (Шаньси, Китай) (197 км)
Погода в Юйсяне (Шаньси, Китай) (200 км)
Погода в Цзесю (Шаньси, Китай) (203 км)
Погода в Синтае (Хэбэй, Китай) (245 км)

Пояснения к столбцам:

Ветер - указаны скорость ветра в м/с - средняя за 10 мин, порывы в срок и между сроками (в фигурных скобках) и направление, откуда дует ветер: С - северный, СВ - северо-восточный, В - восточный, ЮВ - юго-восточный, Ю - южный, ЮЗ - юго-западный, З - западный, СЗ - северо-западный.
Видимость - горизонтальная дальность видимости в метрах или километрах. При видимости от 1 до 10 км при отсутствии осадков обычно наблюдается дымка, при ухудшении видимости до 1 км и менее - туман. В сухую погоду видимость может ухудшаться дымом, пылью или мглою.
Явления - указаны атмосферные явления, наблюдавшиеся в срок или в последний час перед сроком; фигурными скобками обозначены явления, наблюдавшиеся между сроками (за 1-3 часа до срока); квадратными скобками обозначены град или гололедные отложения с указанием их диаметра в мм.
Облачность - указаны через наклонную черту общая и нижняя облачность в баллах и высота нижней границы облаков в метрах; квадратными скобками обозначены формы облаков: Ci - перистые, Cs - перисто-слоистые, Cc - перисто-кучевые, Ac - высококучевые, As - высокослоистые, Sc - слоисто-кучевые, Ns - слоисто-дождевые, Cu - кучевые, Cb - кучево-дождевые. Подробнее классификацию облаков см. в Атласе облаков (PDF).
T - Температура воздуха - температура, измеренная на высоте 2 м над землей.
Td - Температура точки росы - температура, при понижении до которой содержащийся в воздухе водяной пар достигнет насыщения.
f - Относительная влажность воздуха - влажноcть воздуха, измеренная на высоте 2 м над землей.
Te - Эффективная температура - температура, которую ощущает одетый по сезону человек в тени. Характеристика душности погоды. При расчете учитывается влияние влажности воздуха и скорости ветра на теплоощущения человека.
Tes - Эффективная температура на солнце - температура, которую ощущает человек, с поправкой на солнечный нагрев. Характеристика знойности погоды. Зависит от высоты солнца над горизонтом, облачности и скорости ветра. Ночью, в пасмурную погоду, а также при ветре 12 м/с и более поправка равна нулю.
P - Атмосферное давление - приведенное к уровню моря атмосферное давление.
Po - Атмосферное давление - измеренное на уровне метеостанции атмосферное давление.
Tmin - Минимальная температура - минимум температуры воздуха на высоте 2 м над землей.
Tmax - Максимальная температура - максимум температуры воздуха на высоте 2 м над землей.
R - Количество осадков - Количество выпавших осадков за период времени, мм. При наведении курсора мыши на число - период времени, за который выпало указанное количество осадков.
R24 - Количество осадков - Количество выпавших осадков за 24 часа, мм.
S - Снежный покров - Высота снежного покрова, см. При наведении курсора мыши на число - состояние снежного покрова и степень покрытия местности в баллах.